Tracking 25954 objects as of 14-Aug-2022
HD Live streaming from Space Station
objects crossing your sky now

SL-8 R/B

Track SL-8 R/B now!
10-day predictions
SL-8 R/B is classified as:


NORAD ID: 19257
Int'l Code: 1988-053B
Perigee: 759.4 km
Apogee: 787.6 km
Inclination: 74.1 °
Period: 100.2 minutes
Semi major axis: 7144 km
RCS: 4.3504 m2 (large)
Launch date: June 21, 1988
Source: Commonwealth of Independent States (former USSR) (CIS)
Launch site: PLESETSK MISSILE AND SPACE COMPLEX (PKMTR)

Note: This is a ROCKET BODY
aabbcc
Your satellite tracking list
Your tracking list is empty




NASA's NSSDC Master Catalog

Two Line Element Set (TLE):
1 19257U 88053B   22226.49837236  .00000075  00000-0  33724-4 0  9999
2 19257  74.0502 351.8304 0019689 137.5771 291.1644 14.37619292789243
Source of the keplerian elements: AFSPC